UTC,SampNum,MM/DD/YYYY,HH:MM:SS,VbatMain,VbiasPos,VbiasNeg,TC_cont,Humidity,Vrse,Vrse_std,Vk,Vk_std,Ik,Ib,Opt_PN,Opt_SN,Moxy,O2satper,TC_opt,Dphase,Bphase,Rphase,Bamp,Bpot,Ramp,Opt_rawtemp,TC_MCat,Cond,Pres,pSal,day_MC,month_MC,year_MC,time_MC,pH,CHa,NTU,flow,unix_time,TC_cont_flg,Moxy_flg,O2satper_flg,pSal_flg,pH_flg,CHa_flg,NTU_flg
2023-07-01 00:44:02+00:00,,,,,,,,,,,,,,,,,,,,,,,,,,,,,,,,,,,,,,0,1688172242,2,2,2,2,2,2,2
2023-07-01 01:44:01+00:00,,,,,,,,,,,,,,,,,,,,,,,,,,,,,,,,,,,,,,0,1688175841,2,2,2,2,2,2,2
2023-07-01 02:44:02+00:00,,,,,,,,,,,,,,,,,,,,,,,,,,,,,,,,,,,,,,0,1688179442,2,2,2,2,2,2,2
2023-07-01 03:44:02+00:00,,,,,,,,,,,,,,,,,,,,,,,,,,,,,,,,,,,,,,0,1688183042,2,2,2,2,2,2,2
2023-07-01 04:44:02+00:00,,,,,,,,,,,,,,,,,,,,,,,,,,,,,,,,,,,,,,0,1688186642,2,2,2,2,2,2,2
2023-07-01 05:44:02+00:00,,,,,,,,,,,,,,,,,,,,,,,,,,,,,,,,,,,,,,0,1688190242,2,2,2,2,2,2,2
2023-07-01 06:44:01+00:00,,,,,,,,,,,,,,,,,,,,,,,,,,,,,,,,,,,,,,0,1688193841,2,2,2,2,2,2,2
2023-07-01 07:44:02+00:00,,,,,,,,,,,,,,,,,,,,,,,,,,,,,,,,,,,,,,0,1688197442,2,2,2,2,2,2,2
2023-07-01 08:44:02+00:00,,,,,,,,,,,,,,,,,,,,,,,,,,,,,,,,,,,,,,0,1688201042,2,2,2,2,2,2,2
2023-07-01 09:44:01+00:00,,,,,,,,,,,,,,,,,,,,,,,,,,,,,,,,,,,,,,0,1688204641,2,2,2,2,2,2,2
2023-07-01 10:44:02+00:00,,,,,,,,,,,,,,,,,,,,,,,,,,,,,,,,,,,,,,0,1688208242,2,2,2,2,2,2,2
2023-07-01 11:44:01+00:00,,,,,,,,,,,,,,,,,,,,,,,,,,,,,,,,,,,,,,0,1688211841,2,2,2,2,2,2,2
2023-07-01 12:44:02+00:00,,,,,,,,,,,,,,,,,,,,,,,,,,,,,,,,,,,,,,0,1688215442,2,2,2,2,2,2,2
2023-07-01 13:44:02+00:00,,,,,,,,,,,,,,,,,,,,,,,,,,,,,,,,,,,,,,0,1688219042,2,2,2,2,2,2,2
2023-07-01 14:09:22+00:00,#0004501,07/01/2023,14:08:17,10.56,3.6,-3.54,15.43,52,-0.937375,1.4e-005,-0.796615,0.000122,-11.28,-2.138,5730,1914,202.835,63.585,14.411,35.333,36.082,42.59,6.508,930.2,673.1,402.9,14.5106,4.08263,0.063,33.519,1,Jul,2023,14:09:17,8.00868440370155,,,,1688220562,2,2,2,2,1,9,9
2023-07-01 14:44:02+00:00,#0004502,07/01/2023,14:45:53,10.53,3.6,-3.54,14.92,52,-0.934763,8e-006,-0.793874,4.4e-005,-9.9,-2.055,5730,1914,276.5,84.761,13.396,32.157,32.906,39.456,6.55,825.7,673.6,435.8,12.9411,3.94782,0.082,33.6377,1,Jul,2023,14:46:53,8.06395749836015,,,0,1688222642,2,2,2,2,2,9,9
2023-07-01 15:44:02+00:00,#0004503,07/01/2023,15:45:52,10.52,3.6,-3.54,14.14,52,-0.940803,1.3e-005,-0.797852,6.3e-005,-7.54,-1.95,5730,1914,218.448,65.623,12.492,35.311,36.06,42.629,6.569,932.2,681.4,464.9,12.1248,3.87221,0.085,33.6432,1,Jul,2023,15:46:53,7.97029802239596,,,0,1688226242,2,2,2,2,2,9,9
2023-07-01 16:44:02+00:00,#0004504,07/01/2023,16:45:52,10.49,3.6,-3.54,13.24,52,-0.946432,7e-006,-0.801859,5.6e-005,-4.88,-1.871,5730,1914,179.007,53.258,12.066,37.866,38.615,45.21,6.595,1016.5,687.3,478.6,11.8605,3.85167,0.088,33.6824,1,Jul,2023,16:46:53,7.88557873346339,,,0,1688229842,2,2,2,2,2,2,2
2023-07-01 17:44:02+00:00,#0004505,07/01/2023,17:45:52,10.5,3.6,-3.54,12.85,53,-0.950075,9e-006,-0.80456,2.6e-005,-13.98,-1.901,5730,1914,158.47,47.003,11.931,39.363,40.112,46.686,6.574,1064.7,689.9,482.9,11.7856,3.84428,0.092,33.6783,1,Jul,2023,17:46:53,7.82716645481741,,,0,1688233442,2,2,2,2,2,2,2
2023-07-01 18:44:02+00:00,#0004506,07/01/2023,18:45:52,10.47,3.6,-3.54,12.6,53,-0.95202,1e-005,-0.806048,2.3e-005,-10.86,-1.949,5730,1914,150.948,44.721,11.881,39.953,40.702,47.253,6.551,1083.4,690.7,484.5,11.7713,3.84541,0.093,33.7023,1,Jul,2023,18:46:53,7.79689358779319,,,0,1688237042,2,2,2,2,2,2,2
2023-07-01 19:44:02+00:00,#0004507,07/01/2023,19:45:52,10.48,3.6,-3.54,12.85,52,-0.953362,6e-006,-0.807076,2.9e-005,-7.52,-1.9,5730,1914,153.673,45.554,11.906,39.734,40.483,47.012,6.529,1076.7,690.7,483.7,11.8326,3.85231,0.091,33.7139,1,Jul,2023,19:46:53,7.7697496713525,,,0,1688240642,2,2,2,2,2,2,2
2023-07-01 20:44:02+00:00,#0004508,07/01/2023,20:45:52,10.48,3.6,-3.54,12.98,53,-0.954015,1e-005,-0.807688,3.2e-005,-9.39,-1.942,5730,1914,150.683,44.843,12.078,39.885,40.634,47.145,6.511,1081,689.9,478.2,12.0103,3.86856,0.088,33.7112,1,Jul,2023,20:46:52,7.75631709027657,,,0,1688244242,2,2,2,2,2,2,2
2023-07-01 21:44:02+00:00,#0004509,07/01/2023,21:45:53,10.5,3.6,-3.54,13.37,53,-0.954029,1.6e-005,-0.807921,6.9e-005,-9.94,-1.935,5730,1914,148.784,44.542,12.34,39.914,40.663,47.167,6.504,1081.7,689.6,469.8,12.3721,3.90134,0.083,33.702,1,Jul,2023,21:46:53,7.75027997008067,,,0,1688247842,2,2,2,2,2,2,2
2023-07-01 22:44:02+00:00,#0004510,07/01/2023,22:45:52,10.49,3.6,-3.54,13.37,53,-0.952088,2e-005,-0.807465,4.9e-005,-0.67,-2.101,5730,1914,165.592,50.725,13.363,38.2,38.949,45.449,6.499,1027,688.1,436.8,13.8218,4.03253,0.082,33.6563,1,Jul,2023,22:46:53,7.78377336070786,,,0,1688251442,2,2,2,2,2,2,2
2023-07-01 23:44:02+00:00,#0004511,07/01/2023,23:45:52,10.5,3.6,-3.54,14.4,52,-0.944558,2.3e-005,-0.802208,3.4e-005,-6.3,-2.164,5730,1914,224.183,69.535,13.927,34.366,35.115,41.673,6.558,900.3,680.8,418.6,14.1923,4.06486,0.079,33.6319,1,Jul,2023,23:46:52,7.90034603383823,,,0,1688255042,2,2,2,2,2,2,2
2023-07-02 00:44:02+00:00,#0004512,07/02/2023,00:45:53,10.54,3.6,-3.54,15.05,52,-0.940977,1.4e-005,-0.799688,4.3e-005,-2.47,-2.163,5730,1914,256.286,79.79,14.097,32.73,33.479,40.085,6.606,845.2,676,413,14.148,4.06092,0.076,33.6342,2,Jul,2023,00:46:53,7.95320649011708,,,0,1688258642,2,2,2,2,2,2,2
2023-07-02 01:44:02+00:00,#0004513,07/02/2023,01:45:52,10.49,3.6,-3.54,14.66,52,-0.9394,1.3e-005,-0.798471,5.8e-005,-9.51,-2.072,5730,1914,259.256,80.503,13.977,32.649,33.398,40.013,6.615,842.1,674.6,416.9,13.8656,4.03721,0.074,33.6615,2,Jul,2023,01:46:53,7.98716735472005,,,0,1688262242,2,2,2,2,2,2,2
2023-07-02 02:44:02+00:00,#0004514,07/02/2023,02:45:52,10.51,3.6,-3.54,14.53,52,-0.938949,1.1e-005,-0.798067,7.2e-005,-1.66,-2.051,5730,1914,252.119,78.023,13.824,33.038,33.787,40.386,6.599,855.4,675.5,421.9,13.7169,4.02267,0.074,33.6566,2,Jul,2023,02:46:53,7.99699923328384,,,0,1688265842,2,2,2,2,2,2,2
2023-07-02 03:44:02+00:00,#0004515,07/02/2023,03:45:52,10.51,3.6,-3.54,14.4,52,-0.939418,1e-005,-0.798422,3.2e-005,-13.61,-2.103,5730,1914,250.214,77.031,13.588,33.228,33.977,40.567,6.589,862,676.5,429.5,13.4528,3.99765,0.076,33.655,2,Jul,2023,03:46:53,7.99076043155246,,,0,1688269442,2,2,2,2,2,2,2
2023-07-02 04:44:02+00:00,#0004516,07/02/2023,04:45:52,10.5,3.6,-3.55,14.4,52,-0.940303,1.2e-005,-0.799115,2.6e-005,-11.25,-2.041,5730,1914,249.323,76.582,13.485,33.315,34.064,40.643,6.579,865.4,678.1,432.9,13.4121,3.99053,0.078,33.6241,2,Jul,2023,04:46:52,7.97481235974431,,,0,1688273042,2,2,2,2,2,2,2
2023-07-02 05:44:02+00:00,#0004517,07/02/2023,05:45:52,10.5,3.6,-3.54,14.4,52,-0.940906,1.4e-005,-0.799709,3.3e-005,-6.64,-2.053,5730,1914,244.292,75.012,13.471,33.559,34.308,40.88,6.572,873.7,679.1,433.3,13.4375,3.99632,0.079,33.6561,2,Jul,2023,05:46:53,7.96469607375214,,,0,1688276642,2,2,2,2,2,2,2
2023-07-02 06:44:02+00:00,#0004518,07/02/2023,06:45:52,10.51,3.6,-3.54,14.4,52,-0.940705,9e-006,-0.799659,6.2e-005,-7.18,-2.068,5730,1914,235.87,72.503,13.518,33.949,34.698,41.266,6.568,886.6,679.3,431.8,13.5217,4.00274,0.075,33.642,2,Jul,2023,06:46:53,7.96801965428218,,,0,1688280242,2,2,2,2,2,2,2
2023-07-02 07:44:02+00:00,#0004519,07/02/2023,07:45:52,10.51,3.6,-3.54,14.27,52,-0.940266,1.1e-005,-0.799604,2.6e-005,-5.52,-2.149,5730,1914,232.313,71.614,13.648,34.07,34.819,41.385,6.566,890.5,679.1,427.6,13.6834,4.01868,0.072,33.6488,2,Jul,2023,07:46:53,7.97780373118044,,,0,1688283842,2,2,2,2,2,2,2
2023-07-02 08:44:02+00:00,#0004520,07/02/2023,08:45:52,10.5,3.6,-3.54,14.4,52,-0.939276,1.5e-005,-0.798973,5.4e-005,-12.09,-2.189,5730,1914,247.87,76.425,13.657,33.308,34.057,40.624,6.567,865.2,678.4,427.3,13.672,4.01598,0.069,33.6335,2,Jul,2023,08:46:52,7.99294530913364,,,0,1688287442,2,2,2,2,2,2,2
2023-07-02 09:44:02+00:00,#0004521,07/02/2023,09:45:52,10.5,3.6,-3.54,14.14,52,-0.938357,1.3e-005,-0.798505,4.1e-005,-2.83,-2.115,5730,1914,247.073,76.209,13.674,33.338,34.087,40.653,6.566,866.1,678.4,426.7,13.6992,4.01892,0.07,33.6371,2,Jul,2023,09:46:52,8.01312109024014,,,0,1688291042,2,2,2,2,2,2,2
2023-07-02 10:44:02+00:00,#0004522,07/02/2023,10:45:52,10.5,3.6,-3.54,14.4,52,-0.93645,1.7e-005,-0.797357,6.8e-005,-9.26,-2.129,5730,1914,267.768,82.706,13.737,32.379,33.128,39.692,6.564,834,678.8,424.7,13.8107,4.02823,0.069,33.6261,2,Jul,2023,10:46:53,8.04237146982264,,,0,1688294642,2,2,2,2,2,2,2
2023-07-02 11:44:02+00:00,#0004523,07/02/2023,11:45:52,10.5,3.6,-3.54,14.02,52,-0.934455,1.5e-005,-0.796109,3.6e-005,-12.5,-2.087,5730,1914,286.762,88.599,13.75,31.59,32.339,38.899,6.56,807.2,678.4,424.3,13.8094,4.02783,0.071,33.6235,2,Jul,2023,11:46:53,8.08326338108699,,,0,1688298242,2,2,2,2,2,2,2
2023-07-02 12:44:02+00:00,#0004524,07/02/2023,12:45:52,10.51,3.6,-3.54,14.4,52,-0.93312,9e-006,-0.795319,2.8e-005,-2.83,-2.108,5730,1914,296.498,91.552,13.723,31.224,31.973,38.533,6.561,795.1,678.7,425.2,13.7792,4.02493,0.076,33.6229,2,Jul,2023,12:46:52,8.1006905271485,,,0,1688301842,2,2,2,2,2,2,2
2023-07-02 13:44:02+00:00,#0004525,07/02/2023,13:45:52,10.51,3.6,-3.54,14.4,52,-0.932949,8e-006,-0.795363,4.7e-005,-8.35,-2.062,5730,1914,302.236,93.277,13.7,31.018,31.767,38.323,6.557,788.2,678.9,425.9,13.753,4.02265,0.079,33.6247,2,Jul,2023,13:46:53,8.10371306495451,,,0,1688305442,2,2,2,2,2,2,2
2023-07-02 14:44:01+00:00,#0004526,07/02/2023,14:45:51,10.5,3.6,-3.54,14.4,52,-0.934099,8e-006,-0.796252,2.7e-005,-1.2,-2.03,5730,1914,290.707,89.479,13.579,31.507,32.256,38.815,6.558,804.6,678.6,429.8,13.5415,4.00578,0.081,33.6531,2,Jul,2023,14:46:52,8.08395872206841,,,0,1688309041,2,2,2,2,2,2,2
2023-07-02 15:44:02+00:00,#0004527,07/02/2023,15:45:52,10.5,3.6,-3.54,14.14,52,-0.936869,9e-006,-0.798245,2.3e-005,-7.1,-2.007,5730,1914,255.411,78.319,13.409,33.067,33.816,40.374,6.557,857.4,679,435.3,13.356,3.98545,0.086,33.6258,2,Jul,2023,15:46:52,8.03906466201729,,,0,1688312642,2,2,2,2,2,2,2
2023-07-02 16:44:02+00:00,#0004528,07/02/2023,16:45:51,10.5,3.6,-3.55,14.14,52,-0.939515,1.1e-005,-0.799924,4.8e-005,-9.1,-2.071,5730,1914,242.131,73.623,13.031,33.857,34.606,41.154,6.548,883.9,680.2,447.6,12.812,3.93652,0.088,33.6451,2,Jul,2023,16:46:52,7.99291988208874,,,0,1688316242,2,2,2,2,2,2,2
2023-07-02 17:44:02+00:00,#0004529,07/02/2023,17:45:52,10.48,3.6,-3.54,13.63,52,-0.942482,6e-006,-0.801839,3.9e-005,-14.39,-2.009,5730,1914,223.336,67.294,12.626,34.989,35.738,42.287,6.55,922,683.2,460.6,12.4069,3.90475,0.091,33.7035,2,Jul,2023,17:46:53,7.94945450584219,,,0,1688319842,2,2,2,2,2,2,2
2023-07-02 18:44:02+00:00,#0004530,07/02/2023,18:45:52,10.49,3.6,-3.54,13.37,52,-0.945155,8e-006,-0.803728,5.6e-005,-13.95,-1.969,5730,1914,205.158,61.488,12.39,36.102,36.851,43.401,6.551,959,685.8,468.2,12.2473,3.88533,0.088,33.6598,2,Jul,2023,18:46:53,7.90577329207296,,,0,1688323442,2,2,2,2,2,2,2
2023-07-02 19:44:02+00:00,#0004531,07/02/2023,19:45:52,10.49,3.6,-3.54,13.37,52,-0.946804,1.1e-005,-0.804885,5.2e-005,-5.49,-2.07,5730,1914,195.402,58.538,12.37,36.689,37.438,43.977,6.539,978.4,687,468.8,12.2885,3.89075,0.085,33.6751,2,Jul,2023,19:46:53,7.87698480226794,,,0,1688327042,2,2,2,2,2,2,2
2023-07-02 20:44:02+00:00,#0004532,07/02/2023,20:45:51,10.51,3.6,-3.54,13.76,52,-0.947684,9e-006,-0.805598,3.8e-005,-7.31,-1.951,5730,1914,204.97,61.594,12.507,36.059,36.808,43.335,6.526,957.5,686,464.4,12.4153,3.90151,0.083,33.6647,2,Jul,2023,20:46:52,7.85554914659912,,,0,1688330642,2,2,2,2,2,2,2
2023-07-02 21:44:02+00:00,#0004533,07/02/2023,21:45:51,10.5,3.6,-3.54,13.76,52,-0.948169,1.1e-005,-0.806119,2.7e-005,-5.89,-1.993,5730,1914,202.212,61.165,12.797,36.089,36.838,43.359,6.521,958.2,684.5,455.1,12.7486,3.93122,0.082,33.6512,2,Jul,2023,21:46:52,7.84683837122001,,,0,1688334242,2,2,2,2,2,2,2
2023-07-02 22:44:02+00:00,#0004534,07/02/2023,22:45:52,10.49,3.6,-3.54,13.63,52,-0.94802,1.3e-005,-0.806008,5.8e-005,-4.85,-2.089,5730,1914,205.651,62.485,12.998,35.798,36.547,43.081,6.533,948.2,682.4,448.6,12.9511,3.95099,0.079,33.659,2,Jul,2023,22:46:53,7.85149962116646,,,0,1688337842,2,2,2,2,2,2,2
2023-07-02 23:44:02+00:00,#0004535,07/02/2023,23:45:51,10.5,3.6,-3.54,14.14,52,-0.94493,3.3e-005,-0.804962,9.3e-005,-4.79,-2.212,5730,1914,213.478,66.956,14.434,34.719,35.468,42.008,6.54,911.5,680.9,402.1,14.9706,4.14151,0.075,33.6585,2,Jul,2023,23:46:52,7.89811587940464,,,0,1688341442,2,2,2,2,2,2,2
2023-07-03 00:44:02+00:00,#0004536,07/03/2023,00:45:52,10.51,3.6,-3.54,15.18,52,-0.935211,1.7e-005,-0.798314,5.1e-005,-1.06,-2.288,5730,1914,305.241,96.999,15.037,30.357,31.106,37.766,6.66,763.6,671.3,382.4,15.2192,4.16207,0.073,33.6306,3,Jul,2023,00:46:53,8.05195568478221,,,0,1688345042,2,2,2,2,2,2,2
2023-07-03 01:44:01+00:00,#0004537,07/03/2023,01:45:51,10.54,3.6,-3.54,16.21,52,-0.930193,1.9e-005,-0.794901,0.000309,-8.89,-2.289,5730,1914,344.72,110.237,15.33,28.92,29.669,36.415,6.746,713.6,666.2,372.9,15.3882,4.17536,0.071,33.6055,3,Jul,2023,01:46:52,8.12291590288878,,,0,1688348641,2,2,2,2,2,2,2
2023-07-03 02:44:02+00:00,#0004538,07/03/2023,02:45:52,10.53,3.6,-3.54,16.08,52,-0.927719,2.1e-005,-0.793319,0.000198,-9.85,-2.278,5730,1914,368.706,118.416,15.53,28.136,28.885,35.657,6.772,686.8,664.3,366.4,15.5433,4.19234,0.073,33.6253,3,Jul,2023,02:46:53,8.16837187498402,,,0,1688352242,2,2,2,2,2,2,2
2023-07-03 03:44:02+00:00,#0004539,07/03/2023,03:45:51,10.55,3.6,-3.55,16.21,52,-0.926352,2e-005,-0.792504,0.000326,-5.14,-2.345,5730,1914,340.799,109.629,15.605,28.936,29.685,36.468,6.784,713.8,663.4,363.9,15.6429,4.20077,0.078,33.6157,3,Jul,2023,03:46:53,8.18995848008064,,,0,1688355842,2,2,2,2,2,2,2
2023-07-03 04:44:02+00:00,#0004540,07/03/2023,04:45:52,10.55,3.6,-3.54,16.46,52,-0.925704,2e-005,-0.792623,0.000102,-15.17,-2.337,5730,1914,341.964,110.386,15.767,28.837,29.586,36.364,6.778,710.5,663.2,358.6,15.8743,4.22221,0.086,33.6099,3,Jul,2023,04:46:53,8.1971190316377,,,0,1688359442,2,2,2,2,2,2,2
2023-07-03 05:44:02+00:00,#0004541,07/03/2023,05:45:52,10.54,3.6,-3.55,15.43,52,-0.925361,1.1e-005,-0.792807,0.000246,-2.9,-2.371,5730,1914,343.5,111.476,16.018,28.694,29.443,36.228,6.786,705.2,662.3,350.4,16.1858,4.25182,0.088,33.6084,3,Jul,2023,05:46:53,8.21975972250301,,,0,1688363042,2,2,2,2,2,2,2
2023-07-03 06:44:01+00:00,#0004542,07/03/2023,06:45:51,10.58,3.6,-3.55,16.98,52,-0.925632,1.3e-005,-0.793339,0.00012,-3.96,-2.435,5730,1914,331.237,107.944,16.214,29.005,29.754,36.565,6.812,715.6,660.6,344,16.3587,4.26861,0.088,33.6104,3,Jul,2023,06:46:52,8.18996874949174,,,0,1688366641,2,2,2,2,2,2,2
2023-07-03 07:44:02+00:00,#0004543,07/03/2023,07:45:52,10.55,3.6,-3.55,16.59,52,-0.925952,1.4e-005,-0.793722,6.2e-005,-10.43,-2.416,5730,1914,310.109,100.953,16.164,29.735,30.484,37.305,6.821,740.1,659.8,345.6,16.2263,4.25751,0.089,33.6244,3,Jul,2023,07:46:53,8.19090587877149,,,0,1688370242,2,2,2,2,2,2,2
2023-07-03 08:44:02+00:00,#0004544,07/03/2023,08:45:51,10.53,3.6,-3.55,16.46,52,-0.925881,1e-005,-0.793686,0.000316,-18.25,-2.426,5730,1914,303.079,97.627,15.668,30.182,30.931,37.73,6.799,755.7,661.1,361.8,15.5929,4.19482,0.087,33.6051,3,Jul,2023,08:46:53,8.19397154494517,,,0,1688373842,2,2,2,2,2,2,2
2023-07-03 09:44:02+00:00,#0004545,07/03/2023,09:45:51,10.52,3.6,-3.55,16.21,52,-0.92653,2e-005,-0.794371,0.000101,-2.2,-2.307,5730,1914,306.206,97.768,15.257,30.234,30.983,37.746,6.763,758.2,664.3,375.3,15.1786,4.15599,0.087,33.6106,3,Jul,2023,09:46:53,8.18678663818119,,,0,1688377442,2,2,2,2,2,2,2
2023-07-03 10:44:02+00:00,#0004546,07/03/2023,10:45:52,10.55,3.6,-3.54,15.95,52,-0.925919,1.9e-005,-0.793919,0.000119,-11.28,-2.217,5730,1914,334.119,106.068,14.99,29.388,30.137,36.879,6.743,729.9,666.6,384,14.9252,4.13208,0.085,33.6121,3,Jul,2023,10:46:53,8.20165384724593,,,0,1688381042,2,2,2,2,2,2,2
2023-07-03 11:44:02+00:00,#0004547,07/03/2023,11:45:51,10.51,3.6,-3.54,15.43,52,-0.92598,6e-006,-0.794109,5.4e-005,-8.5,-2.22,5730,1914,333.701,105.338,14.73,29.504,30.253,36.974,6.72,734.3,668.6,392.5,14.6511,4.10566,0.085,33.6081,3,Jul,2023,11:46:53,8.20894511986382,,,0,1688384642,2,2,2,2,2,2,2
2023-07-03 12:44:02+00:00,#0004548,07/03/2023,12:45:51,10.55,3.6,-3.54,15.56,52,-0.926314,1e-005,-0.794517,0.000111,-7.89,-2.213,5730,1914,341.919,107.484,14.538,29.317,30.066,36.771,6.705,728.3,670.5,398.7,14.4984,4.09152,0.086,33.611,3,Jul,2023,12:46:53,8.2010522255143,,,0,1688388242,2,2,2,2,2,2,2
2023-07-03 13:44:02+00:00,#0004549,07/03/2023,13:45:51,10.53,3.6,-3.54,15.43,52,-0.926763,1e-005,-0.794957,4.2e-005,-12.09,-2.187,5730,1914,339.463,106.339,14.378,29.459,30.208,36.899,6.691,733.4,671.9,403.9,14.3572,4.07739,0.087,33.6039,3,Jul,2023,13:46:52,8.19521145467334,,,0,1688391842,2,2,2,2,2,2,2
2023-07-03 14:44:02+00:00,#0004550,07/03/2023,14:45:51,10.53,3.6,-3.54,15.05,52,-0.927162,7e-006,-0.795358,7.5e-005,-11.59,-2.101,5730,1914,336.473,105.163,14.274,29.596,30.345,37.021,6.676,738.3,673.2,407.3,14.2789,4.07039,0.09,33.6075,3,Jul,2023,14:46:53,8.19441684328192,,,0,1688395442,2,2,2,2,2,2,2
2023-07-03 15:44:02+00:00,#0004551,07/03/2023,15:45:51,10.5,3.6,-3.55,14.66,52,-0.92767,9e-006,-0.795912,4.5e-005,-2.23,-2.19,5730,1914,328.112,102.443,14.226,29.89,30.639,37.307,6.668,748.6,673.8,408.8,14.2399,4.0666,0.093,33.6065,3,Jul,2023,15:46:52,8.19179444244286,,,0,1688399042,2,2,2,2,2,2,2
2023-07-03 16:44:02+00:00,#0004552,07/03/2023,16:45:51,10.52,3.6,-3.54,14.66,52,-0.928658,9e-006,-0.796794,4.3e-005,0.57,-2.067,5730,1914,319.348,99.466,14.116,30.232,30.981,37.636,6.655,760.4,674.1,412.4,14.0842,4.05207,0.094,33.6081,3,Jul,2023,16:46:52,8.17451619368,,,0,1688402642,2,2,2,2,2,2,2
2023-07-03 17:44:02+00:00,#0004553,07/03/2023,17:45:51,10.51,3.6,-3.54,14.79,52,-0.930046,8e-006,-0.797732,5.4e-005,-6.14,-2.09,5730,1914,309.383,95.88,13.888,30.678,31.427,38.079,6.652,775.8,674.7,419.8,13.7656,4.02384,0.094,33.6247,3,Jul,2023,17:46:52,8.14837197413994,,,0,1688406242,2,2,2,2,2,2,2
2023-07-03 18:44:02+00:00,#0004554,07/03/2023,18:45:51,10.51,3.6,-3.54,14.66,52,-0.932788,1.3e-005,-0.799234,3.6e-005,-9.59,-2.07,5730,1914,295.333,90.47,13.364,31.419,32.168,38.813,6.644,801.1,675.8,436.8,13.0968,3.95997,0.095,33.6147,3,Jul,2023,18:46:52,8.10228906405416,,,0,1688409842,2,2,2,2,2,2,2
2023-07-03 19:44:02+00:00,#0004555,07/03/2023,19:45:51,10.53,3.6,-3.54,14.14,52,-0.937394,1e-005,-0.80242,4.1e-005,-5.91,-2.041,5730,1914,243.936,74.261,13.084,33.746,34.495,41.13,6.635,879.9,679.9,445.8,12.9294,3.94437,0.094,33.6154,3,Jul,2023,19:46:52,8.02970753676884,,,0,1688413442,2,2,2,2,2,2,2
2023-07-03 20:44:02+00:00,#0004556,07/03/2023,20:45:51,10.51,3.6,-3.54,13.89,52,-0.940406,7e-006,-0.804561,3.2e-005,-1.51,-1.97,5730,1914,225.426,68.394,12.933,34.741,35.49,42.109,6.619,912.9,681.6,450.7,12.813,3.93564,0.092,33.6359,3,Jul,2023,20:46:53,7.98099214749123,,,0,1688417042,2,2,2,2,2,2,2
2023-07-03 21:44:02+00:00,#0004557,07/03/2023,21:45:51,10.53,3.6,-3.54,14.14,52,-0.942206,7e-006,-0.805804,2.1e-005,-8.5,-2.068,5730,1914,216.025,65.556,12.943,35.24,35.989,42.591,6.601,929.6,682.6,450.4,12.9099,3.94335,0.09,33.623,3,Jul,2023,21:46:53,7.94539974423107,,,0,1688420642,2,2,2,2,2,2,2
2023-07-03 22:44:02+00:00,#0004558,07/03/2023,22:45:51,10.49,3.6,-3.54,13.89,52,-0.942918,9e-006,-0.806218,2.9e-005,-3.91,-2.034,5730,1914,216.194,65.77,13.053,35.181,35.93,42.522,6.592,927.9,682.5,446.8,13.0245,3.95348,0.088,33.6174,3,Jul,2023,22:46:53,7.93662442812,,,0,1688424242,2,2,2,2,2,2,2
2023-07-03 23:44:01+00:00,#0004559,07/03/2023,23:45:50,10.5,3.6,-3.54,14.02,52,-0.94096,2.4e-005,-0.805365,2.4e-005,-8.87,-2.006,5730,1914,235.19,72.57,13.69,33.907,34.656,41.24,6.584,885.4,682,426.2,13.92,4.03993,0.086,33.6391,3,Jul,2023,23:46:52,7.96932146702841,,,0,1688427841,2,2,2,2,2,2,2
2023-07-04 00:44:02+00:00,#0004560,07/04/2023,00:45:51,10.5,3.6,-3.54,14.4,52,-0.934551,2.2e-005,-0.801142,2.9e-005,-5.62,-2.181,5730,1914,296.62,93.208,14.52,30.887,31.636,38.236,6.6,783,677.9,399.3,14.9128,4.13179,0.084,33.6201,4,Jul,2023,00:46:53,8.07557005728171,,,0,1688431442,2,2,2,2,2,2,2
2023-07-04 01:44:02+00:00,#0004561,07/04/2023,01:45:51,10.51,3.6,-3.54,14.79,52,-0.929735,1.8e-005,-0.797922,8.6e-005,-12.55,-2.184,5730,1914,322.187,102.216,14.961,29.794,30.543,37.195,6.652,745,672.7,384.9,15.2632,4.16209,0.082,33.5931,4,Jul,2023,01:46:52,8.15336924351467,,,0,1688435042,2,2,2,2,2,2,2
2023-07-04 02:44:02+00:00,#0004562,07/04/2023,02:45:50,10.52,3.6,-3.54,15.43,52,-0.927346,1.6e-005,-0.796408,9.6e-005,-7.1,-2.18,5730,1914,316.055,100.358,15.002,29.988,30.737,37.422,6.685,750.9,669.7,383.6,15.1335,4.15033,0.087,33.5982,4,Jul,2023,02:46:52,8.18494951240323,,,0,1688438642,2,2,2,2,2,2,2
2023-07-04 03:44:02+00:00,#0004563,07/04/2023,03:45:51,10.52,3.6,-3.55,15.43,52,-0.926722,1.2e-005,-0.795827,8.1e-005,-13.93,-2.193,5730,1914,287.498,91.021,14.865,31.095,31.844,38.534,6.689,788.1,669.2,388.1,14.9038,4.12891,0.087,33.6017,4,Jul,2023,03:46:53,8.19589650564911,,,0,1688442242,2,2,2,2,2,2,2
2023-07-04 04:44:02+00:00,#0004564,07/04/2023,04:45:51,10.52,3.6,-3.55,15.3,52,-0.927543,1e-005,-0.796251,7.5e-005,-8.01,-2.075,5730,1914,293.695,91.926,14.34,31.073,31.822,38.504,6.682,787.7,669.6,405.1,14.1438,4.05823,0.091,33.613,4,Jul,2023,04:46:52,8.18380886174029,,,0,1688445842,2,2,2,2,2,2,2
2023-07-04 05:44:02+00:00,#0004565,07/04/2023,05:45:51,10.52,3.6,-3.54,15.05,52,-0.929614,1e-005,-0.79786,2.1e-005,-5.58,-2.019,5730,1914,305.513,95.27,14.17,30.701,31.45,38.101,6.65,776.1,673.4,410.7,14.1436,4.05857,0.092,33.6164,4,Jul,2023,05:46:53,8.1516635385816,,,0,1688449442,2,2,2,2,2,2,2
2023-07-04 06:44:02+00:00,#0004566,07/04/2023,06:45:51,10.51,3.6,-3.54,14.79,52,-0.929949,1e-005,-0.798341,2.3e-005,-10.09,-2.139,5730,1914,298.658,93.511,14.355,30.879,31.628,38.266,6.638,782.3,674.7,404.6,14.5012,4.09125,0.093,33.6062,4,Jul,2023,06:46:52,8.14980857646822,,,0,1688453042,2,2,2,2,2,2,2
2023-07-04 07:44:02+00:00,#0004567,07/04/2023,07:45:50,10.51,3.6,-3.54,14.92,52,-0.929666,1e-005,-0.798491,5.3e-005,-0.62,-2.21,5730,1914,291.039,91.608,14.598,31.068,31.817,38.452,6.635,788.4,673.8,396.8,14.8015,4.11901,0.093,33.6,4,Jul,2023,07:46:52,8.15259846495658,,,0,1688456642,2,2,2,2,2,2,2
2023-07-04 08:44:02+00:00,#0004568,07/04/2023,08:45:51,10.51,3.6,-3.54,15.3,52,-0.92891,1e-005,-0.798161,5.5e-005,-5.31,-2.208,5730,1914,290.534,91.688,14.718,31.038,31.787,38.43,6.643,787.1,672.5,392.9,14.891,4.12781,0.09,33.6027,4,Jul,2023,08:46:53,8.15977932716183,,,0,1688460242,2,2,2,2,2,2,2
2023-07-04 09:44:01+00:00,#0004569,07/04/2023,09:45:50,10.53,3.6,-3.54,15.18,52,-0.928983,1.3e-005,-0.798226,6.5e-005,-10.45,-2.237,5730,1914,284.254,89.76,14.746,31.273,32.022,38.664,6.642,794.7,671.9,392,14.9138,4.12826,0.089,33.5871,4,Jul,2023,09:46:52,8.16020418942813,,,0,1688463841,2,2,2,2,2,2,2
2023-07-04 10:44:02+00:00,#0004570,07/04/2023,10:45:51,10.53,3.6,-3.54,15.43,52,-0.929958,1.2e-005,-0.799037,5.1e-005,-12.26,-2.198,5730,1914,257.189,81.291,14.789,32.394,33.143,39.794,6.651,832.5,671.5,390.5,14.9323,4.13087,0.086,33.595,4,Jul,2023,10:46:53,8.13928779062178,,,0,1688467442,2,2,2,2,2,2,2
2023-07-04 11:44:02+00:00,#0004571,07/04/2023,11:45:51,10.52,3.6,-3.54,15.18,52,-0.9308,1.4e-005,-0.799761,6.6e-005,-9.13,-2.198,5730,1914,243.849,77.055,14.778,33.015,33.764,40.415,6.651,853.2,671.4,390.9,14.9109,4.1286,0.084,33.5928,4,Jul,2023,11:46:53,8.12852448462253,,,0,1688471042,2,2,2,2,2,2,2
2023-07-04 12:44:02+00:00,#0004572,07/04/2023,12:45:51,10.53,3.6,-3.54,15.18,52,-0.930902,1.4e-005,-0.799817,8.9e-005,-11.18,-2.218,5730,1914,243.222,76.755,14.716,33.071,33.82,40.469,6.649,855.1,671.6,392.9,14.8259,4.12219,0.084,33.6079,4,Jul,2023,12:46:53,8.12695447423338,,,0,1688474642,2,2,2,2,2,2,2
2023-07-04 13:44:02+00:00,#0004573,07/04/2023,13:45:50,10.51,3.6,-3.54,15.05,52,-0.930856,9e-006,-0.799727,0.000107,-13.77,-2.209,5730,1914,246.528,77.499,14.539,32.99,33.739,40.379,6.64,852.4,672.2,398.7,14.613,4.10119,0.087,33.6003,4,Jul,2023,13:46:52,8.12971723891035,,,0,1688478242,2,2,2,2,2,2,2
2023-07-04 14:44:02+00:00,#0004574,07/04/2023,14:45:50,10.52,3.6,-3.55,15.43,52,-0.930421,1.1e-005,-0.799469,5.5e-005,-12.34,-2.116,5730,1914,267.48,83.75,14.356,32.127,32.876,39.512,6.635,824,673.2,404.6,14.3971,4.08118,0.09,33.604,4,Jul,2023,14:46:52,8.13132859443508,,,0,1688481842,2,2,2,2,2,2,2